This demonstration page uses our WeatherBlox Daily Observations layout. Learn more.

Left ArrowRight Arrow

38.88101, -77.10428

Hourly Observations for August 19, 2020

Temp ( °F °C ) Dew Point ( °F °C ) Humidity (%) Winds ( mph kmh ) Pressure ( in mb ) Visibility ( mi km ) Precip ( " mm )
12:52 am 00:52 Mostly Clear 74 23.3 66 18.9 76 76 S 5 7 29.91 1013 10 16.0934 0 0
1:52 am 01:52 Mostly Clear 74 23.3 65 18.3 74 74 S 5 7 29.9 1013 10 16.0934 0 0
2:52 am 02:52 Partly Cloudy 72 22.2 66 18.9 82 82 SSW 7 11 29.89 1012 10 16.0934 0 0
3:52 am 03:52 Mostly Cloudy 72 22.2 66 18.9 82 82 SW 3 6 29.88 1012 10 16.0934 0 0
4:52 am 04:52 Cloudy with Light Rain 73 22.8 67 19.4 81 81 WSW 13 20 29.9 1013 8 12.87472 0.001 0.001
5:52 am 05:52 Cloudy with Light Rain 71 21.7 65 18.3 81 81 NNW 7 11 29.9 1013 9 14.48406 0.04 1.016
6:52 am 06:52 Cloudy 71 21.7 65 18.3 81 81 NW 6 9 29.92 1013 10 16.0934 0.01 0.254
7:52 am 07:52 Mostly Cloudy with Light Rain 69 20.6 65 18.3 87 87 N 9 15 29.93 1014 10 16.0934 0.04 1.016
8:52 am 08:52 Cloudy 70 21.1 65 18.3 84 84 NNW 5 7 29.96 1014 10 16.0934 0.001 0.001
9:52 am 09:52 Cloudy 71 21.7 64 17.8 79 79 Calm 29.97 1015 10 16.0934 0 0
10:52 am 10:52 Cloudy 72 22.2 65 18.3 79 79 WSW 3 6 29.97 1015 10 16.0934 0 0
11:52 am 11:52 Mostly Cloudy 76 24.4 65 18.3 69 69 N 6 9 29.96 1015 10 16.0934 0 0
12:52 pm 12:52 Partly Cloudy 78 25.6 64 17.8 62 62 NW 8 13 29.95 1014 10 16.0934 0 0
1:52 pm 13:52 Mostly Sunny 81 27.2 64 17.8 57 57 NNW 10 17 29.94 1014 10 16.0934 0 0
2:52 pm 14:52 Partly Cloudy 82 27.8 64 17.8 55 55 NW 3 6 29.93 1014 10 16.0934 0 0
3:52 pm 15:52 Mostly Cloudy 84 28.9 62 16.7 48 48 Calm 29.92 1013 10 16.0934 0 0
4:52 pm 16:52 Partly Cloudy 84 28.9 63 17.2 49 49 NNW 8 13 29.92 1013 10 16.0934 0 0
5:52 pm 17:52 Partly Cloudy 81 27.2 62 16.7 53 53 N 5 7 29.92 1013 10 16.0934 0 0
6:52 pm 18:52 Partly Cloudy 81 27.2 63 17.2 54 54 N 9 15 29.92 1013 10 16.0934 0 0
7:52 pm 19:52 Mostly Sunny 79 26.1 62 16.7 56 56 N 5 7 29.93 1014 10 16.0934 0 0
8:52 pm 20:52 Mostly Cloudy 77 25 69 20.6 77 77 S 8 13 29.96 1014 10 16.0934 0 0
9:52 pm 21:52 Mostly Clear 75 23.9 70 21.1 84 84 SE 6 9 29.98 1015 10 16.0934 0 0
10:52 pm 22:52 Mostly Clear 75 23.9 69 20.6 82 82 Calm 29.99 1016 10 16.0934 0 0
11:52 pm 23:52 Mostly Clear 75 23.9 70 21.1 84 84 Calm 30 1016 10 16.0934 0 0

Powered by AerisWeather